Calicut International Airport

Jump to: basic info | weather | frequencies | runways | comments

Related pages: nearby airports | nearby navaids | notams | map

Basic information (top)

Codes: CCJ VOCL
Location: lon 11.136800, lat 75.955299, elev 342 ft / 104 m msl
Status: large_airport
Scheduled airline service: yes
Links: Wikipedia Mobile

Weather (top)

Current conditions (rec'd 2014/08/27 08:30Z):

VOCL 270830Z 30008KT 8000 FEW012 FEW025CB BKN090 30/24 Q1009 NOSIG

Airport forecast (rec'd 2014/08/26 06:00Z):

TAF VOCL 260300Z 2606/2712 29005KT 7000 SCT015 BKN080 
      TEMPO 2609/2615 3000 TSRA/RA SCT006 FEW025CB OVC080 
      BECMG 2616/2617 00000KT 5000 HZ 
      TEMPO 2623/2703 2000 RA/DZ SCT006 FEW025CB OVC080 
      BECMG 2704/2705 24005KT 6000 
      TEMPO 2709/2712 3000 TSRA/RA SCT007 FEW025CB OVC080 

Frequencies (top)

Verify before use: may be inaccurate or out of date.

ATIS: 127 MHz (ATIS)
TWR: 122.95 MHz (TWR)

Runways (top)

10/28: 9,383 x 150 ft (2,860 x 46 m) — paved — lighted

Latest comments (top)

Moideenkutty oorakam ( CCJ ): Calicut int airport ( Terminal,1 - ... [read]

Info: Calicut International Airport ... [read]

More... (top)

See also NOTAMs and nearby airports and navaids, or visit the Calicut International Airport page at the main OurAirports website..